This is the latest recevied weather packets stored in our database for station/object N4QEP-13. If no packets are shown the sender has not sent any weather packets the latest 10 day(s).
| Time | Temp. | Humidity | Pressure | Rain* | Wind** | Luminosity | Snow |
|---|---|---|---|---|---|---|---|
| 1777982453 | 12.22° C | 70% | 1015.9 hPa | 0 mm | - | - | - |
| 1777981556 | 11.67° C | 73% | 1015.7 hPa | 0 mm | - | - | - |
| 1777980654 | 11.11° C | 76% | 1015.7 hPa | 0 mm | - | - | - |
| 1777979747 | 11.11° C | 77% | 1015.6 hPa | 0 mm | - | - | - |
| 1777978847 | 11.11° C | 77% | 1015.5 hPa | 0 mm | - | - | - |
| 1777977945 | 11.11° C | 77% | 1015.3 hPa | 0 mm | - | - | - |
| 1777977045 | 11.11° C | 77% | 1015.3 hPa | 0 mm | - | - | - |
| 1777976129 | 11.11° C | 77% | 1015.2 hPa | 0 mm | - | - | - |
| 1777975235 | 11.11° C | 77% | 1015.2 hPa | 0 mm | - | - | - |
| 1777974310 | 11.11° C | 77% | 1015.2 hPa | 0 mm | - | - | - |
| 1777973410 | 10.56° C | 76% | 1015 hPa | 0 mm | - | - | - |
| 1777972508 | 11.11° C | 76% | 1014.8 hPa | 0 mm | - | - | - |
| 1777971606 | 11.11° C | 76% | 1014.8 hPa | 0 mm | - | - | - |
| 1777970737 | 11.11° C | 76% | 1014.5 hPa | 0 mm | - | - | - |
| 1777969835 | 11.11° C | 76% | 1014.4 hPa | 0 mm | - | - | - |
| 1777968902 | 11.11° C | 76% | 1014.4 hPa | 0 mm | - | - | - |
| 1777968001 | 11.67° C | 76% | 1014.5 hPa | 0 mm | - | - | - |
| 1777967157 | 11.67° C | 76% | 1014.6 hPa | 0 mm | - | - | - |
| 1777966258 | 11.67° C | 74% | 1014.4 hPa | 0 mm | - | - | - |
| 1777965355 | 11.67° C | 73% | 1014.7 hPa | 0 mm | - | - | - |
| 1777964453 | 12.22° C | 72% | 1015 hPa | 0 mm | - | - | - |
| 1777963543 | 12.22° C | 72% | 1015.2 hPa | 0 mm | - | - | - |
| 1777962649 | 12.22° C | 72% | 1015.4 hPa | 0 mm | - | - | - |
| 1777961742 | 12.22° C | 73% | 1015.5 hPa | 0 mm | - | - | - |
| 1777960839 | 12.22° C | 73% | 1015.7 hPa | 0 mm | - | - | - |
* Rain latest hour (hover to see other rain measurements)
** Current wind speed in m/s (hover to see current wind gust speed)